#timestamp,LO_Frequency,Hit 
1502967615.9,286047005.3,N
1502967635.7,286047007.2,N
1502967655.6,286047009.2,N
1502967675.4,286047009.7,N
1502967695.2,286047010.2,N
1502967715.1,286047012.3,N
1502967716.0,286047012.3,N
1502967735.8,286047012.2,N
1502967755.6,286047012.1,N
1502967775.5,286047011.3,N
1502967795.3,286047010.0,N
1502967815.1,286047008.5,N
1502967835.9,286047004.4,N
1502967855.7,286047004.4,N
1502967875.5,286047002.4,N
1502967895.3,286047000.3,N
1502967915.2,286046996.5,N
1502967935.0,286046995.3,N
1502967935.9,286046995.3,N
1502967955.7,286046995.9,N
1502967975.6,286046994.6,N
1502967995.4,286046990.1,N
1502968015.2,286046994.4,N
1502968035.1,286046993.8,N
1502968036.0,286046993.8,N
1502968055.8,286046999.0,N
1502968075.6,286047000.4,N
1502968095.5,286046999.9,N
1502968115.3,286047000.4,N
1502968135.1,286047000.8,N
1502968155.9,286047000.4,N
1502968175.7,286047001.6,N
1502968195.5,286047000.3,N
1502968215.4,286047001.2,N
1502968235.2,286047002.3,N
1502968255.0,286047000.6,N
1502968255.9,286047000.6,N
1502968275.8,286047002.6,N
1502968295.6,286047001.4,N
1502968315.4,286047005.3,N
1502968335.3,286047002.9,N
1502968355.1,286047003.7,N
1502968356.0,286047003.7,N
1502968375.8,286047001.8,N
1502968395.7,286046998.1,N
1502968415.5,286047000.3,N
1502968435.3,286047005.6,N
1502968455.1,286047007.1,N
1502968475.9,286047004.5,N
1502968495.7,286047009.2,N
1502968515.5,286047011.8,N
1502968535.4,286047009.8,N
1502968555.2,286047009.9,N
1502968575.0,286047009.3,N
1502968575.9,286047009.3,N
1502968595.8,286047011.6,P
1502968615.6,286047010.8,N
1502968635.4,286047008.5,N
1502968655.3,286047006.4,N
1502968675.1,286047007.8,N
1502968695.9,286047010.6,P
1502968715.7,286046997.9,N
1502968735.5,286046999.4,N
1502968755.3,286046998.4,N
1502968775.2,286046998.7,N
1502968795.0,286047001.1,N
1502968795.9,286047001.1,N
1502968815.7,286046999.9,N
1502968835.6,286046997.0,N
1502968855.4,286046995.8,N
1502968875.2,286046993.7,N
1502968895.1,286046994.7,N
1502968896.0,286046994.7,N
1502968915.8,286046990.6,N
1502968935.6,286046988.8,N
1502968955.5,286046987.4,N
1502968975.3,286046985.3,N
1502968995.1,286046983.7,N
1502969015.9,286046984.9,N
1502969035.7,286046983.5,N
1502969055.5,286046981.1,N
1502969075.4,286046981.8,N
1502969095.2,286046975.7,P
1502969115.0,286046982.7,N
1502969115.9,286046982.7,N
1502969135.1,286046982.9,N
1502969155.8,286046986.4,N
1502969175.7,286046986.1,N
1502969195.5,286046985.9,N
1502969215.3,286046984.1,P
1502969235.2,286047000.8,P
1502969255.9,286047000.0,N
1502969275.7,286047001.9,N
1502969295.6,286047003.1,N
1502969315.4,286047004.9,N
1502969335.2,286047005.8,N
1502969355.1,286047003.0,N
1502969356.0,286047003.0,N
1502969375.8,286047006.6,N
1502969395.6,286047006.4,N
1502969415.5,286047009.7,N
1502969435.3,286047013.0,N
1502969455.1,286047015.0,N
1502969475.9,286047014.4,N
1502969495.7,286047013.5,N
1502969515.5,286047013.7,N
1502969535.3,286047014.8,N
1502969555.2,286047014.9,N
1502969575.0,286047011.0,N
1502969575.9,286047011.0,N
1502969595.7,286047008.1,N
1502969615.6,286047004.9,N
1502969635.4,286047001.6,N
1502969655.2,286047002.2,N
1502969675.1,286047004.0,N
1502969676.0,286047004.0,N
1502969695.8,286047003.9,N
1502969715.6,286047005.5,N
1502969735.5,286047001.6,N
1502969755.3,286046997.0,N
1502969775.1,286046994.1,N
1502969795.9,286046990.3,N
1502969815.7,286046989.0,N
1502969835.5,286046985.6,N
1502969855.4,286046983.7,N
1502969875.2,286046983.9,N
1502969895.0,286046982.3,N
1502969895.9,286046982.3,N
1502969915.8,286046983.4,N
1502969935.6,286046982.7,N
1502969955.4,286046983.5,N
1502969975.2,286046984.6,N
1502969995.1,286046987.3,N
1502969996.0,286046987.3,N
1502970015.8,286046992.8,N
1502970035.6,286046995.8,N
1502970055.5,286046995.3,N
1502970075.3,286046997.2,N
1502970095.1,286047002.2,N
1502970115.9,286047002.4,N
1502970135.7,286046999.7,N
1502970155.5,286047002.5,N
1502970175.4,286047002.6,N
1502970195.2,286047001.7,N
1502970215.0,286047002.1,N
1502970215.9,286047002.1,N
1502970235.8,286046998.7,N
1502970255.6,286046997.8,N
1502970275.4,286046988.9,N
1502970295.2,286046984.2,N
1502970315.1,286046983.4,N
1502970316.0,286046983.4,N
1502970335.8,286046981.9,N
1502970355.6,286046979.6,N
1502970375.5,286046979.6,N
1502970395.3,286046975.7,N
1502970415.1,286046979.1,N
1502970435.9,286046977.7,N
1502970455.7,286046980.2,N
1502970475.5,286046981.1,N
1502970495.4,286046979.8,N
1502970515.2,286046978.5,N
1502970535.0,286046976.7,N
1502970535.9,286046976.7,N
1502970555.8,286046975.3,N
1502970575.6,286046973.7,N
1502970595.4,286046971.1,N
1502970615.3,286046968.5,N
1502970635.1,286046967.7,N
1502970636.0,286046967.7,N
1502970655.8,286046968.9,N
1502970675.7,286046968.7,N
1502970695.5,286046968.8,N
1502970715.3,286046970.4,N
1502970735.2,286046968.6,P
1502970755.9,286046987.7,N
1502970775.7,286046985.4,N
1502970795.6,286046986.8,N
1502970815.4,286046984.6,N
1502970835.2,286046984.9,N
1502970855.0,286046984.6,N
1502970855.9,286046984.6,N
1502970875.8,286046986.3,N
1502970895.6,286046986.5,N
1502970915.4,286046985.3,N
1502970935.3,286046984.9,P
1502970955.1,286046999.6,N
1502970975.8,286046994.2,N
1502970995.7,286046990.1,N
1502971015.5,286046993.0,N
1502971035.3,286046992.6,N
1502971055.2,286046992.0,N
1502971075.0,286046996.0,N
1502971075.9,286046996.0,N
1502971095.7,286046993.3,N
1502971115.6,286046999.3,N
1502971135.4,286046998.7,N
1502971155.2,286046998.5,N
1502971175.1,286047001.4,N
1502971176.0,286047001.4,N
1502971195.8,286047002.9,N
